Location: Ar Ranvel
(48.3000°N, 4.8833°W)
Time: 08:40:44
(UTC+00:00)

Cosmos 2237 - Pass Details

Date: 16 June 2021
Orbit: 848 x 854 km, 70.8° (Epoch: 26 July)

Event Time Altitude Azimuth Distance (km) Brightness Sun altitude
Rises 22:01:34 0° 209° (SSW) 3,400 7.1 -11.9°
Reaches altitude 10° 22:04:00 10° 210° (SSW) 2,468 6.4 -12.1°
Maximum altitude 22:09:41 82° 298° (WNW) 862 4.3 -12.6°
Drops below altitude 10° 22:15:24 10° 27° (NNE) 2,482 7.1 -13.0°
Sets 22:17:52 0° 28° (NNE) 3,422 7.8 -13.2°
